sat.trackr.live / text

‹ back to catalog

STARLINK-5286

NORAD 55294 · 2023-010AB

PAYLOAD ACTIVE UNKNOWN

§ Identity

Operator
Country
US
Launch date
2023-01-19
Launch site
AFWTR
Launch vehicle
Mass (kg)
RCS (m²)

Purposes: comms

External: N2YO · Heavens-Above · Gunter

§ Orbital elements

Epoch: 2026-09-20T22:00:03.000096Z

Period
95.65 min
Inclination
69.9984°
Eccentricity
0.0004118
Mean motion
15.05535546 rev/d
Perigee alt
547.0 km
Apogee alt
552.7 km
Semi-major
6,928.0 km
B*
8.3841e-3
RAAN
272.0361°
Arg perigee
313.3522°
Mean anomaly
47.8314°
Rev number
576

§ Raw data

STARLINK-52861 55294U 23010AB  26263.91670139  .00122968  00000+0  83841-2 0  99992 55294  69.9984 272.0361 0004118 313.3522  47.8314 15.05535546  5760

JSON: /api/v1/satellites/55294 · /tle

For live sub-satellite position, see the globe view (requires WebGL).

§ Visibility from observer

Set your observer location to see the next 7 days of passes ≥ 10°. The values pass through the URL so the page stays shareable.

No JS? Fill the form by hand. The geolocation button needs JavaScript.